Location: Gorze? G�rny
(49.8500°N, 19.5000°E)
Time: 02:34:45
(UTC+00:00)

ADEOS II - Pass Details

Date: 13 May 2021
Orbit: 799 x 801 km, 98.6° (Epoch: 23 June)

Event Time Altitude Azimuth Distance (km) Brightness Sun altitude
Rises 23:31:57 0° 28° (NNE) 3,320 6.7 -20.5°
Reaches altitude 10° 23:35:17 10° 50° (NE) 2,383 5.3 -20.4°
Maximum altitude 23:38:25 16° 87° (E) 1,998 4.3 -20.2°
Drops below altitude 10° 23:41:33 10° 124° (SE) 2,372 4.4 -20.1°
Enters shadow 23:42:14 - 130° (SE) 2,536 4.5 -20.1°
